User: anonymous   Login
Location: Maiden_LMO
(35.5760°N, 81.2120°W)
Time: 09:31:37
(UTC-04:00)
Language:

Cosmos 2278 Rocket - Orbit

View from above orbital plane
View from above orbital plane
View from above satellite
View from above satellite

Ground track
Ground track

The orbit data is extracted from the following two-line orbital elements,

1 23088U 94023B   15185.94676979  .00000010  00000-0  30012-4 0  9997
2 23088 071.0010 339.0162 0001200 125.1625 234.9610 14.14625750 94677
Epoch (UTC): 04 July 2015 22:43:20
Eccentricity: 0.0001200
inclination: 71.0010°
perigee height: 843 km
apogee height: 844 km
right ascension of ascending node: 339.0162°
argument of perigee: 125.1625°
revolutions per day: 14.14625750
mean anomaly at epoch: 234.9610°
orbit number at epoch: 9467

The dashed part of the orbit path shows where the satellite is in the earth's shadow,  

DLR